Regional Weather Roundup
Issued by NWS Bismarck, ND

Home | Current Version | Previous Version | Text Only | Print | Product List | Glossary On
Versions: 1 2 3 4 5 6 7 8 9 10 11 12 13 14 15 16 17 18 19 20 21 22 23 24 25 26 27 28 29 30 31 32 33 34 35 36 37 38 39 40 41 42 43 44 45 46 47 48 49 50
000
ASUS43 KBIS 280520
RWRBIS

NWR BROADCAST TEXT
NATIONAL WEATHER SERVICE BISMARCK ND
1200 AM CDT THU AUG 28 2014

NOTE: "FAIR" INDICATES FEW OR NO CLOUDS BELOW 12,000 FEET WITH NO
SIGNIFICANT WEATHER AND/OR OBSTRUCTIONS TO VISIBILITY.


CITY           SKY/WX    TMP DP  RH WIND       PRES   REMARKS
WILLISTON      MOCLDY    68  55  63 SW5       29.94S
MINOT          CLEAR     62  58  86 SE6       29.97F
MINOT AFB      CLEAR     60  60  99 S8        29.96F
BISMARCK       CLOUDY    65  61  87 E3        30.03F
DICKINSON      CLEAR     61  59  93 S10       30.00F
GARRISON         N/A     62  61  96 S5        30.00F
HETTINGER ARPT FOG       58  57  97 CALM      30.05F VSB 1/4
JAMESTOWN      CLOUDY    66  60  81 SE9       30.04F
BEACH            N/A     61  61 100 S12       30.01F
CARRINGTON     FAIR      59  59 100 SE7       30.04F
CROSBY         FAIR      64  57  77 S13       29.92F
HARVEY         FAIR      61  61 100 S10       30.02F
HAZEN          FAIR      61  59  94 S7        30.01S
LINTON         FAIR      63  61  94 SE7       30.03F
MANDAN         CLOUDY    64  59  82 SE8       30.03F
OAKES            N/A     64  64 100 E9        30.04F
RUGBY          FAIR      61  59  94 S9        30.00F
STANLEY        FAIR      59  59 100 S6        29.97F
TIOGA          MOCLDY    57  57 100 CALM      29.99S
WATFORD CITY   FAIR      64  55  72 CALM      29.95S
$$

CITY           SKY/WX    TMP DP  RH WIND       PRES   REMARKS
GRAND FORKS    CLEAR     61  57  87 S7        30.05F
GRAND FORKS AF CLEAR     60  60  99 S8        30.05F
DEVILS LAKE    CLEAR     64  55  72 S9        30.02S
FARGO          CLOUDY    66  59  78 SE9       30.06F
CANDO          FAIR      61  59  94 S7        30.02F
CAVALIER       FAIR      59  55  88 S6        30.03F
GRAFTON        FAIR      55  55 100 S6        30.04F
GWINNER        CLOUDY    66  63  88 CALM      30.06F
LANGDON        FAIR      59  57  94 S10       30.03F
ROLLA          FAIR      57  57 100 S9        30.01F
WALHALLA         N/A     63  63 100 S8        30.02F
$$

CITY           SKY/WX    TMP DP  RH WIND       PRES   REMARKS
ABERDEEN       PTCLDY    61  61 100 SE6       30.03F
MOBRIDGE       CLOUDY    66  63  90 E6        30.00S
BUFFALO          N/A     61  60  97 S6        29.99F
RAPID CITY     CLOUDY    64  62  93 NW7       30.04F
GLASGOW        CLEAR     65  52  62 SE6       29.91F
SIDNEY         CLEAR     61  55  82 S7        29.96S
WOLF POINT     CLEAR     63  54  72 CALM      29.92S
GLENDIVE       PTCLDY    66  61  82 S13       29.99S
MILES CITY     PTCLDY    67  58  72 S9        29.97S
BAKER          CLEAR     64  60  87 S14       30.04S
$$

CITY           SKY/WX    TMP DP  RH WIND       PRES   REMARKS
BILLINGS       CLEAR     73  49  42 W15       30.03S
GREAT FALLS    CLEAR     63  47  55 S10       30.01F
REGINA         MOCLDY    63  57  82 SE8       29.85S
ESTEVAN        PTCLDY    64  57  77 S7        29.92F
$$



USA.gov is the U.S. government's official web portal to all federal, state and local government web resources and services.